This is the latest recevied weather packets stored in our database for station/object DC7RY. If no packets are shown the sender has not sent any weather packets the latest 10 day(s).
| Time | Temp. | Humidity | Pressure | Rain* | Wind** | Luminosity | Snow |
|---|---|---|---|---|---|---|---|
| 1788669331 | 7.22° C | 99% | 1019.4 hPa | 0 mm | - | 0 W/m² | - |
| 1788668723 | 7.78° C | 99% | 1019.2 hPa | 0 mm | - | 0 W/m² | - |
| 1788668131 | 7.78° C | 99% | 1019.1 hPa | 0 mm | - | 0 W/m² | - |
| 1788667523 | 8.33° C | 99% | 1019.1 hPa | 0 mm | - | 0 W/m² | - |
| 1788666931 | 8.33° C | 99% | 1018.9 hPa | 0 mm | - | 0 W/m² | - |
| 1788666323 | 8.33° C | 99% | 1019 hPa | 0 mm | - | 0 W/m² | - |
| 1788665731 | 8.33° C | 99% | 1019.1 hPa | 0 mm | - | 0 W/m² | - |
| 1788665123 | 8.33° C | 99% | 1018.9 hPa | 0 mm | - | 0 W/m² | - |
| 1788664531 | 8.33° C | 99% | 1019 hPa | 0 mm | - | 0 W/m² | - |
| 1788663923 | 8.89° C | 99% | 1018.9 hPa | 0 mm | - | 0 W/m² | - |
| 1788663330 | 8.89° C | 99% | 1018.8 hPa | 0 mm | - | 0 W/m² | - |
| 1788662722 | 8.89° C | 99% | 1018.9 hPa | 0 mm | - | 0 W/m² | - |
| 1788662130 | 8.89° C | 99% | 1018.6 hPa | 0 mm | - | 0 W/m² | - |
| 1788661522 | 8.89° C | 99% | 1018.5 hPa | 0 mm | - | 0 W/m² | - |
| 1788660930 | 8.89° C | 99% | 1018.5 hPa | 0 mm | - | 0 W/m² | - |
| 1788660322 | 8.89° C | 99% | 1018.4 hPa | 0 mm | - | 0 W/m² | - |
| 1788654930 | 9.44° C | 96% | 1018.3 hPa | 0 mm | - | 0 W/m² | - |
| 1788653729 | 10° C | 95% | 1018.2 hPa | 0 mm | - | 0 W/m² | - |
| 1788649522 | 10.56° C | 93% | 1017.7 hPa | 0 mm | - | 0 W/m² | - |
| 1788647121 | 11.11° C | 91% | 1017.6 hPa | 0 mm | - | 0 W/m² | - |
| 1788643516 | 11.67° C | 87% | 1017 hPa | 0 mm | - | 0 W/m² | - |
| 1788642924 | 12.22° C | 87% | 1017 hPa | 0 mm | - | 0 W/m² | - |
| 1788641724 | 12.22° C | 86% | 1016.8 hPa | 0 mm | - | 0 W/m² | - |
| 1788640524 | 13.33° C | 82% | 1016.9 hPa | 0 mm | - | 0 W/m² | - |
| 1788639916 | 13.89° C | 80% | 1016.9 hPa | 0 mm | - | 0 W/m² | - |
* Rain latest hour (hover to see other rain measurements)
** Current wind speed in m/s (hover to see current wind gust speed)